Regional Weather Roundup
Issued by NWS Charleston, SC

Current Version | Previous Version | Graphics & Text | Print | Product List | Glossary On
Versions: 1 2 3 4 5 6 7 8 9 10 11 12 13 14 15 16 17 18 19 20 21 22 23 24 25 26 27 28 29 30 31 32 33 34 35 36 37 38 39 40 41 42 43 44 45 46 47 48 49 50
392
ASUS42 KCHS 211927
RWRCHS

REGIONAL WEATHER ROUNDUP
NATIONAL WEATHER SERVICE CHARLESTON SC
200 PM EST TUE NOV 21 2017

NOTE: "FAIR" INDICATES FEW OR NO CLOUDS BELOW 12,000 FEET WITH NO
SIGNIFICANT WEATHER AND/OR OBSTRUCTIONS TO VISIBILITY.

NOT ALL STATIONS ARE QUALITY CONTROLLED. USE DATA WITH CAUTION...
ESPECIALLY DEWPOINT OBSERVATIONS.

SCZ027-030-031-034>040-042>050-212000-
...SOUTHEAST SOUTH CAROLINA...

CITY           SKY/WX    TMP DP  RH WIND       PRES   REMARKS
N CHARLESTON   CLOUDY    71  58  63 SE7       30.06F
WATERFRONT PRK NOT AVBL
JOHNS ISLAND   FAIR      68  59  73 NE6       30.06F
PINOPOLIS        N/A     66  57  72 VRB3      29.98F
MONCKS CORNER  FAIR      70  55  60 E3        30.06F
SUMMERVILLE    CLOUDY    70  55  60 CALM      30.07F
BEAUFORT MCAS  CLOUDY    70  60  70 E9        30.04F
BEAUFORT ARPT  FAIR      68  59  73 E8        30.03F
HILTON HEAD IS MOSUNNY   68  59  73 NE8       30.04F
WALTERBORO     CLOUDY    70  55  60 E8        30.06F
ALLENDALE      MOCLDY    68  55  64 VRB5      30.03F

...SOUTHERN MIDLANDS AND PEE DEE...

CITY           SKY/WX    TMP DP  RH WIND       PRES   REMARKS
GEORGETOWN     FAIR      64  57  77 NE6       30.10S
KINGSTREE      CLOUDY    66  52  59 E3        30.08S
ORANGEBURG     CLOUDY    65  51  60 NE5       30.07F
BARNWELL         N/A     68  55  64 E6        30.05F
AIKEN          CLOUDY    63  52  67 E6        30.09F
MANNING        MOCLDY    66  36  32 MISG      30.08S
COLUMBIA       CLOUDY    62  50  64 CALM      30.08F
SUMTER         CLOUDY    65  50  58 E5        30.05F
FLORENCE       CLOUDY    67  52  58 SE8       30.09F
MYRTLE BEACH   CLOUDY    66  55  67 E13       30.10F
N MYRTLE BEACH CLOUDY    68  54  60 E9        30.09F

$$

GAZ063-065-086>088-099>101-113>116-118-119-134>141-150-212000-
...SOUTHEAST GEORGIA...

CITY           SKY/WX    TMP DP  RH WIND       PRES   REMARKS
SAVANNAH ARPT  CLOUDY    73  59  61 E8        30.02F
HUNTER AAF     CLOUDY    70  60  69 E9        29.99F
FORT STEWART   LGT RAIN  70  61  73 SE14G21   30.00F
STATESBORO     CLOUDY    70  54  56 E5        30.02F
SYLVANIA       CLOUDY    71  59  66 E3        30.04F
CLAXTON        RAIN      70  61  73 CALM      30.02F

...CSRA...CENTRAL AND FAR SOUTHEAST GEORGIA...

CITY           SKY/WX    TMP DP  RH WIND       PRES   REMARKS
THOMSON        CLOUDY    65  53  66 NE3       30.10F
AUGUSTA-BUSH   CLOUDY    66  52  60 E3        30.04F
AUGUSTA-DANIEL CLOUDY    66  52  60 E5        30.06F
SWAINSBORO     CLOUDY    68  57  68 CALM      30.04F
VIDALIA        CLOUDY    68  59  73 CALM      30.03F
EASTMAN        FAIR      68  49  50 CALM      30.05S
HAZLEHURST     FAIR      68  52  56 CALM      30.00F
ALMA           CLOUDY    72  59  63 SE5       30.00F
WAYCROSS       CLOUDY    72  60  65 E7        29.98F
JESUP          MOCLDY    68  64  88 CALM      30.00F
BAXLEY         FAIR      68  61  77 E5        30.00F
BRUNSWICK      CLOUDY    70  63  78 CALM      30.00F
SAINT SIMONS   CLOUDY    72  64  76 CALM      29.99F

$$

SCZ027-028-034-036>038-045-046-048>050-GAZ119-141-212000-
...LAKE AND SUPPLEMENTAL COASTAL OBSERVATIONS...

STATION/POSITION TIME  TEMP    WIND        PRES    WAVE   SWELL
                       AIR SEA DIR/SP/G            HT/PER HT/PER/DIR
                 (UTC) (F)     (DEG/KT/KT) (MB)    (FT/S) (FT/S/D)
WINYAH BAY       1830   61      50/ 10     1019.0F
LAKE MURRAY      1920   60     100/  4/  5 1017.9
ACE BASIN NERRS  1845   70      90/  2     1018.0S
FORT PULASKI     1900   64 61   60/ 12/ 14 1016.9
SAPELO ISLAND    1900   65     150/  4     1016.0

$$

ANZ835-935-AMZ111-154-330-350-352-354-370-450-454-472-212000-
...C-MAN AND BUOY OBSERVATIONS...

STATION/POSITION TIME  TEMP    WIND        PRES    WAVE   SWELL
                       AIR SEA DIR/SP/G            HT/PER HT/PER/DIR
                 (UTC) (F)     (DEG/KT/KT) (MB)    (FT/S) (FT/S/D)
BUOY 41004       1910   73 74  130/ 14/ 19 1017.0
BUOY 41008       1850   70 68  100/  8/  8 1015.8F   4/ 7   3/120/ 7
FOLLY BEACH CMAN 1900   62      50/ 12/ 13 1018.6F
CAPERS NEARSHORE 1908   60 62   60/ 14/ 19 1017.7F
FRIPP NEARSHORE  1908   61 62   30/  8/ 14 1016.8F


STATION/POSITION TIME  TEMP    WIND        PRES    WAVE   SWELL
                       AIR SEA DIR/SP/G            HT/PER HT/PER/DIR
                 (UTC) (F)     (DEG/KT/KT) (MB)    (FT/S) (FT/S/D)
5E ST. MARYS GA  1900      67                N/A     5/ 7
FRYING PAN BUOY  1910   72 71  140/ 14/ 17 1018.6
BUOY 41025       1910   70 76  170/ 12/ 17 1021.3
CAPE LOOKOUT NC  1900           40/ 10/ 11 1020.7F
BUOY 41002       1850   73 76  120/ 19/ 23 1019.0F   6/ 6   2/340/12
BUOY 41010       NOT AVBL
ST AUGUSTINE FL  1900   71 68  180/  8/  9 1015.2F


$$




USA.gov is the U.S. government's official web portal to all federal, state and local government web resources and services.